Regional Weather Roundup
Issued by NWS

Home | Current Version | Previous Version | Graphics & Text | Print | Product List | Glossary On
Versions: 1 2 3 4 5 6 7 8 9 10 11 12 13 14 15 16 17 18 19 20 21 22 23 24 25 26 27 28 29 30 31 32 33 34 35 36 37 38 39 40 41 42 43 44 45 46 47 48 49 50
000
ASUS45 KBOU 191407
RWRCO

WEATHER ROUNDUP FOR COLORADO
NATIONAL WEATHER SERVICE DENVER/BOULDER CO
700 AM MST FRI DEC 19 2014

NOTE: "FAIR" INDICATES FEW OR NO CLOUDS BELOW 12000 FEET WITH NO
SIGNIFICANT WEATHER AND/OR OBSTRUCTIONS TO VISIBILITY.

COZ001>005-013-030-031-191500-
...NORTHWEST COLORADO...

CITY           SKY/WX    TMP DP  RH WIND       PRES   REMARKS
CRAIG          CLOUDY    24  19  81 W3        30.22R
HAYDEN         CLOUDY    16  12  86 CALM      30.19R
MEEKER         CLOUDY    21  18  88 CALM      30.22R
MOUNT WERNER   NOT AVBL
STEAMBOAT SPGS CLOUDY    18  16  91 CALM      30.18R
WALDEN         PTCLDY     0  -6  78 CALM      30.11S
$$

COZ006>008-011-191500-
...WEST CENTRAL VALLEYS...

CITY           SKY/WX    TMP DP  RH WIND       PRES   REMARKS
GRAND JUNCTION CLOUDY    30  28  92 CALM      30.23R
MONTROSE       CLOUDY    29  23  78 S6        30.25R WCI  23
EAGLE          FLURRIES  21  19  93 CALM      30.24R
RIFLE          CLOUDY    29  22  75 E5        30.22S WCI  24
DELTA          CLOUDY    29  26  86 N3        30.25R
NUCLA          CLOUDY    30  27  86 E8        30.27R WCI  23
$$

COZ017>023-064>068-191500-
...SOUTHWEST COLORADO...

CITY           SKY/WX    TMP DP  RH WIND       PRES   REMARKS
DURANGO        CLOUDY    22  18  85 NE7       30.20R WCI  13
CORTEZ         CLEAR     17  15  92 NE3       30.24R
PAGOSA SPRINGS CLOUDY    17  16  96 CALM      30.19R
TELLURIDE      PTCLDY    10   6  87 SE6       30.20  WCI   0
WOLF CREEK PAS SNOW       5   5 100 MISG      30.09S VSB 1/2
$$

COZ009-010-012-014-032>034-037-058>063-191500-
...CENTRAL COLORADO...

CITY           SKY/WX    TMP DP  RH WIND       PRES   REMARKS
ASPEN          CLOUDY    21  15  78 S5        30.17S WCI  15
BUENA VISTA    PTCLDY    19   9  65 NW13      30.12R WCI   6
COPPER MTN     CLOUDY    12   5  73 W18       30.08R WCI  -5
BERTHOUD PASS  CLOUDY     3  -2  78 MISG      30.04S
COTTONWOOD PAS PTCLDY    21   7  53 NW8       30.09R WCI  12
GUNNISON       CLOUDY    16   7  67 N7        30.22R WCI   6
KREMMLING      FLURRIES N/A N/A N/A CALM      30.20F
LEADVILLE      CLOUDY    10   4  76 N9        30.11R WCI  -3
MONARCH PASS   MOCLDY     9   3  78 MISG      30.17R
SALIDA         PTCLDY    19  11  73 CALM      30.21S
SUNLIGHT       CLOUDY   N/A N/A N/A CALM      30.15R
WILKERSON PASS MOCLDY    10   3  72 W10G23    30.06S WCI  -3
$$

COZ069>075-191500-
...SAN LUIS VALLEY/SANGRE DE CRISTO MOUNTAINS...

CITY           SKY/WX    TMP DP  RH WIND       PRES   REMARKS
ALAMOSA        MOCLDY     2  -1  88 CALM      30.17R
LA VETA PASS   NOT AVBL
SAGUACHE       PTCLDY    19  12  73 NW12      30.16R WCI   7
$$

COZ035-036-038>040-191500-
...NORTHERN COLORADO FRONT RANGE...

CITY           SKY/WX    TMP DP  RH WIND       PRES   REMARKS
DENVER INTL AP PTCLDY    24  20  84 SW8       30.09R WCI  15
DMNS CITY PARK   N/A     24  19  81 SE6       30.10S WCI  17
AURORA         PTCLDY    22  19  91 S7        30.11R WCI  13
FRONT RANGE AP CLEAR     28  23  80 SW7       30.10R WCI  21
ERIE MUNI ARPT   N/A     16  15  95 CALM      30.11R FOG
BOULDER MUN AP CLEAR     27  21  80 CALM      30.09S
CENTENNIAL     PTCLDY    19  16  88 E3        30.09R
BROOMFIELD     PTCLDY    28  25  86 CALM      30.09R
FORT COLLINS   CLEAR     23  19  86 N3        30.10S
LONGMONT       CLEAR     19  16  88 SW6       30.12R WCI  11
$$

COZ041-046-047-076>085-087-088-191500-
...PIKES PEAK/PALMER DIVIDE AND SOUTHERN FOOTHILLS...

CITY           SKY/WX    TMP DP  RH WIND       PRES   REMARKS
COLO. SPRINGS  PTCLDY    20  17  88 N10       30.10R WCI   9
A. F. ACADEMY  PTCLDY    16  13  88 N9        30.09R WCI   4
ELLICOTT       NOT AVBL
FALCON         PTCLDY    18  16  92 NW5       30.08R WCI  11
FORT CARSON    PTCLDY    21  17  85 NW8       30.09R WCI  12
LIMON          CLEAR     14  11  87 N7        30.10R WCI   4
MONUMENT HILL  PTCLDY    19  14  79 SW7       30.07R WCI  10
TRINIDAD       CLEAR     24  18  77 W13       30.10R WCI  12
$$

COZ042>045-048>051-090-091-191500-
...NORTHEAST COLORADO...

CITY           SKY/WX    TMP DP  RH WIND       PRES   REMARKS
GREELEY ARPT   CLEAR     10   1  67 CALM      30.09S
AKRON          MOCLDY    18  16  92 W10       30.09R FOG     WCI   6
BURLINGTON     MOCLDY    26  21  81 W8        30.11R WCI  18
WRAY           PTCLDY    20  17  87 W9        30.10S WCI   9
STERLING       PTCLDY    10   9  92 S6        30.11R FOG     WCI   1
HOLYOKE        NOT AVBL
FORT MORGAN    PTCLDY    13  11  90 W13       30.11R WCI  -2
$$

COZ086-089-092>099-191500-
...SOUTHEAST COLORADO...

CITY           SKY/WX    TMP DP  RH WIND       PRES   REMARKS
PUEBLO         CLEAR     18  16  92 W8        30.11  WCI   8
LA JUNTA       CLEAR     26  24  92 W12       30.11R WCI  16
LAMAR          CLEAR     18  16  92 MISG      30.11R
SPRINGFIELD      N/A     25  22  88 NW12      30.09R WCI  14
$$


USA.gov is the U.S. government's official web portal to all federal, state and local government web resources and services.